Previsão horária em Alisivka

Hoje, 25 Janeiro, Segunda-feira

Tempo Temperatura Precipitação Vento Pressão Humidade
00:00 -2°C° 0 mm 6 m/s 747 mmHg 81%
01:00 -2°C° 0 mm 6 m/s 746 mmHg 83%
02:00 -2°C° 0 mm 6 m/s 746 mmHg 84%
03:00 -2°C° 0.1 mm 6 m/s 746 mmHg 86%
04:00 -2°C° 0.1 mm 6 m/s 746 mmHg 88%
05:00 -1°C° 0.1 mm 6 m/s 746 mmHg 90%
06:00 -1°C° 0.3 mm 6 m/s 745 mmHg 91%
07:00 -1°C° 0.3 mm 6 m/s 745 mmHg 92%
08:00 -1°C° 0.3 mm 6 m/s 745 mmHg 93%
09:00 +2°C° 0 mm 5 m/s 746 mmHg 91%
10:00 +3°C° 0 mm 6 m/s 746 mmHg 88%
11:00 +4°C° 0 mm 6 m/s 746 mmHg 85%
12:00 +4°C° 0 mm 6 m/s 746 mmHg 84%
13:00 +5°C° 0 mm 5 m/s 745 mmHg 83%
14:00 +5°C° 0 mm 5 m/s 745 mmHg 82%
15:00 +3°C° 0 mm 5 m/s 745 mmHg 84%
16:00 +2°C° 0 mm 5 m/s 745 mmHg 85%
17:00 +2°C° 0 mm 6 m/s 744 mmHg 86%
18:00 +2°C° 0 mm 6 m/s 744 mmHg 84%
19:00 +2°C° 0 mm 7 m/s 744 mmHg 82%
20:00 +2°C° 0 mm 7 m/s 744 mmHg 80%
21:00 +1°C° 0 mm 8 m/s 743 mmHg 76%
22:00 +1°C° 0 mm 8 m/s 742 mmHg 71%
23:00 +1°C° 0 mm 8 m/s 742 mmHg 66%

Amanhã, 26 Janeiro, Terça-feira

Tempo Temperatura Precipitação Vento Pressão Humidade
00:00 +1°C° 0.1 mm 9 m/s 741 mmHg 69%
01:00 +1°C° 0.1 mm 9 m/s 741 mmHg 73%
02:00 +1°C° 0.1 mm 9 m/s 741 mmHg 76%
03:00 +1°C° 0 mm 9 m/s 740 mmHg 80%
04:00 +2°C° 0 mm 9 m/s 740 mmHg 84%
05:00 +2°C° 0 mm 9 m/s 740 mmHg 87%
06:00 +2°C° 0 mm 8 m/s 740 mmHg 88%
07:00 +3°C° 0 mm 7 m/s 740 mmHg 89%
08:00 +3°C° 0 mm 7 m/s 740 mmHg 89%
09:00 +4°C° 0 mm 7 m/s 740 mmHg 87%
10:00 +5°C° 0 mm 7 m/s 739 mmHg 84%
11:00 +5°C° 0 mm 7 m/s 739 mmHg 81%
12:00 +5°C° 1.8 mm 8 m/s 739 mmHg 82%
13:00 +4°C° 1.8 mm 8 m/s 739 mmHg 82%
14:00 +2°C° 1.8 mm 8 m/s 738 mmHg 82%
15:00 +1°C° 0 mm 8 m/s 739 mmHg 78%
16:00 0°C° 0 mm 8 m/s 740 mmHg 73%
17:00 0°C° 0 mm 7 m/s 741 mmHg 68%
18:00 -1°C° 0 mm 7 m/s 742 mmHg 68%
19:00 -1°C° 0 mm 7 m/s 742 mmHg 67%
20:00 -2°C° 0 mm 7 m/s 743 mmHg 67%
21:00 -2°C° 0 mm 7 m/s 743 mmHg 66%
22:00 -2°C° 0 mm 7 m/s 744 mmHg 66%
23:00 -2°C° 0 mm 7 m/s 744 mmHg 66%

Depois de amanhã, 27 Janeiro, Quarta-feira

Tempo Temperatura Precipitação Vento Pressão Humidade
00:00 -2°C° 0 mm 7 m/s 744 mmHg 65%
01:00 -2°C° 0 mm 7 m/s 745 mmHg 64%
02:00 -2°C° 0 mm 6 m/s 745 mmHg 63%
03:00 -3°C° 0 mm 6 m/s 745 mmHg 64%
04:00 -3°C° 0 mm 6 m/s 745 mmHg 65%
05:00 -3°C° 0 mm 6 m/s 745 mmHg 67%
06:00 -3°C° 0 mm 6 m/s 745 mmHg 65%
07:00 -3°C° 0 mm 6 m/s 746 mmHg 64%
08:00 -3°C° 0 mm 6 m/s 746 mmHg 63%
09:00 -2°C° 0 mm 6 m/s 746 mmHg 58%
10:00 -1°C° 0 mm 6 m/s 746 mmHg 54%
11:00 +1°C° 0 mm 6 m/s 747 mmHg 49%
12:00 +1°C° 0 mm 5 m/s 746 mmHg 51%
13:00 +1°C° 0 mm 4 m/s 746 mmHg 52%
14:00 +1°C° 0 mm 4 m/s 746 mmHg 53%
15:00 +1°C° 0 mm 3 m/s 746 mmHg 58%
16:00 +1°C° 0 mm 2 m/s 746 mmHg 62%
17:00 -1°C° 0 mm 2 m/s 746 mmHg 67%
18:00 +1°C° 0 mm 1 m/s 746 mmHg 67%
19:00 +1°C° 0 mm 1 m/s 746 mmHg 68%
20:00 +1°C° 0 mm 1 m/s 746 mmHg 68%
21:00 +1°C° 0 mm 1 m/s 745 mmHg 68%
22:00 +1°C° 0 mm 1 m/s 745 mmHg 68%
23:00 +1°C° 0 mm 1 m/s 745 mmHg 68%

28 Janeiro, Quinta-feira

Tempo Temperatura Precipitação Vento Pressão Humidade
00:00 -1°C° 0 mm 2 m/s 744 mmHg 69%
01:00 -2°C° 0 mm 2 m/s 744 mmHg 69%
02:00 -2°C° 0 mm 2 m/s 744 mmHg 70%
03:00 -2°C° 0 mm 2 m/s 743 mmHg 71%
04:00 -2°C° 0 mm 3 m/s 743 mmHg 71%
05:00 -3°C° 0 mm 4 m/s 743 mmHg 72%
06:00 -2°C° 0 mm 3 m/s 743 mmHg 72%
07:00 -2°C° 0 mm 3 m/s 743 mmHg 72%
08:00 -2°C° 0 mm 3 m/s 743 mmHg 72%
09:00 -1°C° 0 mm 3 m/s 743 mmHg 71%
10:00 -1°C° 0 mm 3 m/s 743 mmHg 71%
11:00 -1°C° 0 mm 4 m/s 742 mmHg 70%
12:00 -1°C° 0 mm 4 m/s 742 mmHg 68%
13:00 -1°C° 0 mm 4 m/s 742 mmHg 67%
14:00 -1°C° 0 mm 4 m/s 742 mmHg 66%
15:00 -1°C° 0 mm 4 m/s 742 mmHg 69%
16:00 -1°C° 0 mm 3 m/s 742 mmHg 72%
17:00 -1°C° 0 mm 3 m/s 742 mmHg 75%
18:00 -1°C° 0 mm 3 m/s 742 mmHg 78%
19:00 -2°C° 0 mm 3 m/s 742 mmHg 80%
20:00 -2°C° 0 mm 3 m/s 742 mmHg 83%

29 Janeiro, Sexta-feira

Tempo Temperatura Precipitação Vento Pressão Humidade

30 Janeiro, Sábado

Tempo Temperatura Precipitação Vento Pressão Humidade
Mostrar mais

Necessitamos do seu Consentimento

A Meteoprog e os seus Fornecedores de Serviços podem armazenar e aceder a dados pessoais como cookies, identificadores do dispositivo ou outras tecnologias semelhantes existentes no seu dispositivo e processar estes dados para personalizar conteúdos e anúncios, assim como funcionalidades nas redes sociais e análise de tráfego.

  • Armazenar e/ou aceder a informações no seu dispositivo

    Os cookies, identificadores do dispositivo ou outras informações podem ser armazenados ou acedidos no seu dispositivo, para os fins acima indicados.

  • Anúncios e conteúdos personalizados, medição de anúncios e conteúdos, dados sobre o público-alvo e desenvolvimento de produtos

    Os anúncios e os conteúdos podem ser personalizados com base num perfil. Podem ser adicionados dados adicionais para uma maior personalização dos anúncios e dos conteúdos. A eficácia dos anúncios e dos conteúdos pode ser medida. Podem ser obtidas informações sobre o público que visualizou os anúncios e os conteúdos. Estes dados podem ser usados para desenvolver ou melhorar sistemas, softwares ou a experiência do utilizador.

Ao clicar em "Eu concordo”, permitirá o uso de cookies, identificadores do dispositivo e web beacons mencionados ou outras tecnologias semelhantes. As configurações do navegador do seu dispositivo podem ser alteradas.

Para certos fins, podem ser invocados interesses legítimos ao invés de consentimento. Pode ler mais informação sobre este assunto na nossa Política de Privacidade e Cookies.